sat.trackr.live / text

‹ back to catalog

STARLINK-3610

NORAD 51812 · 2022-017AW

PAYLOAD ACTIVE UNKNOWN

§ Identity

Operator
Country
US
Launch date
2022-02-25
Launch site
AFWTR
Launch vehicle
Mass (kg)
RCS (m²)

Purposes: comms

External: N2YO · Heavens-Above · Gunter

§ Orbital elements

Epoch: 2026-05-24T22:40:52.426272Z

Period
95.44 min
Inclination
53.2130°
Eccentricity
0.0001399
Mean motion
15.08828945 rev/d
Perigee alt
538.8 km
Apogee alt
540.7 km
Semi-major
6,917.9 km
B*
2.2427e-4
RAAN
346.7937°
Arg perigee
94.8449°
Mean anomaly
265.2703°
Rev number
23,559

§ Raw data

STARLINK-36101 51812U 22017AW  26144.94505123  .00003282  00000+0  22427-3 0  99992 51812  53.2130 346.7937 0001399  94.8449 265.2703 15.08828945235591

JSON: /api/v1/satellites/51812 · /tle

For live sub-satellite position, see the globe view (requires WebGL).

§ Visibility from observer

Set your observer location to see the next 7 days of passes ≥ 10°. The values pass through the URL so the page stays shareable.

No JS? Fill the form by hand. The geolocation button needs JavaScript.